Wind_Speed
45 45 44 43 43 42 41 41 40 40 39 39 39 38 38 38 37 37 36 35 34 34 33 32 31 31 30 30 30 30 30 30 31 33 35 37 38 39
44 43 42 42 41 40 40 40 39 39 38 38 37 37 37 37 36 36 35 35 34 33 32 32 31 32 32 31 30 29 29 29 31 33 35 38 38 40
42 42 41 40 39 39 39 38 38 38 37 36 37 36 36 36 36 35 35 34 33 33 32 32 32 33 32 31 31 31 31 31 32 33 35 36 37 38
41 40 39 39 38 38 37 37 37 36 36 36 36 36 36 35 35 35 34 33 33 33 33 33 33 33 32 33 32 32 32 32 33 34 35 37 38 39
39 39 38 37 37 37 36 36 36 35 35 35 35 35 35 35 35 34 34 34 33 33 33 33 33 33 34 34 34 35 35 36 37 37 38 38 40 41
38 37 36 36 36 35 35 34 34 34 34 34 34 34 34 34 34 34 34 34 34 35 35 34 35 35 36 36 37 37 38 39 39 40 40 41 42 42
36 36 35 35 34 33 33 33 33 33 33 33 33 34 34 34 34 35 35 36 36 36 36 36 36 37 38 38 39 40 41 41 42 42 43 43 44 44
34 34 33 33 32 32 32 32 32 32 32 33 33 34 34 35 35 36 36 37 37 38 38 38 39 40 40 40 41 42 42 43 43 44 44 45 45 46
33 32 32 31 31 31 31 31 31 32 32 33 34 34 35 36 36 37 37 38 39 39 40 41 41 42 43 43 43 43 43 43 44 44 45 45 46 46
31 31 30 30 30 30 30 31 31 31 32 33 34 35 36 37 37 38 39 40 40 41 42 42 43 44 44 45 44 44 44 45 45 45 46 47 47 47
30 30 29 30 30 30 30 30 31 32 33 34 35 36 37 37 38 39 40 41 42 43 43 44 45 45 46 46 45 45 45 45 45 46 46 47 47 47
29 29 29 29 29 30 30 31 32 33 34 35 36 37 37 38 39 40 41 42 43 44 44 45 46 46 46 47 47 46 45 45 45 45 45 46 46 46
28 28 29 29 29 30 31 32 33 34 35 36 37 38 39 39 40 41 42 43 44 44 45 46 46 46 46 46 47 46 45 44 44 44 44 44 44 44
28 28 29 29 30 31 32 33 33 35 36 37 38 39 40 40 41 42 43 44 44 45 46 46 46 46 46 45 46 46 45 45 44 44 43 43 43 43
28 29 29 30 31 32 32 33 34 35 37 38 39 40 41 41 42 43 44 45 45 46 46 46 45 45 45 45 45 45 45 44 43 43 42 42 42 42
29 30 30 31 31 32 33 34 35 36 38 39 39 40 41 42 42 43 44 45 46 46 46 46 45 45 45 44 44 44 44 43 43 41 40 39 39 39
30 30 31 31 32 33 34 35 36 37 38 39 40 41 41 42 43 44 45 46 46 47 47 46 44 43 43 42 42 42 42 41 40 39 37 37 37 37
31 32 32 33 33 34 35 36 37 38 39 39 40 41 42 43 43 44 45 46 46 46 45 44 43 43 42 42 41 41 40 39 38 37 36 35 35 35
33 33 33 34 35 36 36 37 38 38 39 40 41 41 42 43 44 45 46 46 46 45 45 44 43 42 41 40 41 41 40 38 37 35 34 33 33 33
33 34 35 35 36 36 37 37 38 39 39 40 41 42 43 44 44 45 45 45 45 44 44 44 43 42 40 39 39 40 39 37 35 34 33 32 31 31
34 35 35 36 36 37 37 38 39 39 40 41 42 43 44 44 45 45 45 45 44 44 44 43 42 41 40 39 38 37 37 36 34 33 31 30 29 29
35 36 36 37 37 37 38 39 39 40 41 42 43 43 44 45 45 45 45 44 44 44 43 42 41 41 40 38 37 36 36 36 34 32 31 29 27 27
36 37 37 37 37 38 39 40 41 41 42 42 43 44 45 45 45 45 45 45 44 43 42 41 41 40 39 38 36 35 34 34 33 31 31 29 27 26
Wind_Direction
284 286 286 287 288 288 289 290 291 291 292 293 294 295 296 297 297 298 298 299 299 299 298 297 295 295 295 293 290 288 284 279 271 268 265 264 262 260
284 285 285 286 287 288 289 290 290 291 292 293 293 295 296 297 297 297 298 298 298 298 298 296 296 295 295 293 291 288 285 281 275 273 269 266 263 262
282 283 284 285 286 287 288 289 290 291 292 292 293 295 296 296 297 297 297 297 296 296 296 296 295 294 293 292 291 287 285 281 278 276 272 269 266 264
281 282 283 283 284 286 287 289 290 290 291 293 294 295 296 296 296 297 297 297 296 296 296 295 296 295 293 292 290 289 286 283 280 278 274 270 268 266
280 281 281 282 284 285 287 288 289 290 291 293 295 296 297 297 296 296 297 297 297 297 296 296 296 295 293 293 291 289 286 284 281 279 277 274 270 268
279 280 281 282 283 285 286 288 289 290 292 293 295 296 297 297 297 297 297 297 297 297 297 296 296 295 294 292 291 289 287 285 283 280 278 275 273 270
278 279 280 282 283 284 286 288 289 291 293 294 295 296 297 298 297 298 298 297 297 297 296 296 296 296 294 293 291 289 287 285 283 280 278 276 274 272
276 278 279 280 283 285 286 288 290 291 293 294 296 297 298 298 299 299 299 298 298 297 297 296 296 296 295 294 292 289 288 286 284 281 279 277 275 272
275 277 279 280 283 284 286 288 290 292 294 296 297 298 299 299 300 300 300 299 298 298 297 297 297 296 295 294 293 291 288 287 285 283 281 278 276 273
275 277 278 280 283 285 287 289 291 293 295 296 298 299 300 300 300 300 300 300 299 299 298 298 298 297 296 295 293 291 289 288 286 284 281 279 277 274
274 276 278 281 283 285 287 289 291 293 295 297 299 300 300 301 301 301 301 301 301 300 299 299 299 298 297 296 294 292 291 289 287 285 283 280 278 275
274 277 280 282 284 286 288 290 292 295 296 298 299 300 300 301 302 303 303 303 303 302 301 301 300 300 299 297 295 294 292 290 288 286 284 282 279 276
275 278 281 283 285 287 289 291 293 296 297 299 300 301 302 303 304 304 305 306 305 304 303 303 302 301 300 298 296 295 293 291 289 287 285 282 280 277
276 279 282 284 286 288 291 292 294 296 298 299 300 302 303 304 304 305 306 307 307 306 305 304 303 303 302 300 298 296 294 293 291 288 285 282 280 278
278 280 283 285 287 290 292 293 295 297 299 300 302 303 304 304 305 306 307 308 308 308 308 306 305 304 303 301 299 297 296 295 293 290 287 283 280 278
279 282 284 286 288 290 292 294 296 298 300 301 303 304 304 305 306 307 308 308 309 309 309 308 306 305 304 302 300 298 297 296 295 293 289 285 280 277
280 283 285 287 289 291 292 294 296 299 301 302 303 305 305 306 307 308 308 309 310 310 310 310 309 308 307 305 302 301 300 299 296 294 291 287 282 278
281 283 285 287 289 291 293 295 297 299 301 302 304 305 306 307 308 309 309 310 311 310 310 310 310 309 308 307 305 304 303 301 298 296 292 289 284 279
282 284 286 287 290 292 294 296 297 299 301 303 304 305 306 307 308 309 310 311 311 311 311 311 311 310 309 308 307 306 305 303 301 298 294 291 286 281
283 284 286 288 290 292 294 296 297 299 301 303 304 305 306 307 308 309 310 311 311 311 312 312 312 311 310 310 308 307 305 303 301 299 295 292 288 282
283 285 287 289 291 292 294 296 297 299 301 302 304 305 306 307 307 308 309 310 311 311 312 312 312 312 311 311 310 308 306 305 303 299 296 292 288 284
283 285 287 289 290 292 294 296 297 299 300 302 303 305 305 306 307 308 309 309 310 311 311 311 311 312 312 311 310 309 307 306 304 301 297 293 288 283
283 285 287 288 290 292 294 295 297 299 300 301 303 304 305 306 307 307 308 309 309 310 310 311 311 311 311 311 310 309 308 307 305 303 300 296 291 284
Height
5748 5746 5743 5740 5737 5734 5731 5728 5725 5722 5719 5715 5711 5707 5703 5700 5696 5692 5689 5685 5682 5678 5674 5671 5668 5665 5662 5659 5657 5654 5653 5652 5651 5652 5653 5653 5655 5656
5737 5735 5733 5730 5727 5724 5721 5718 5715 5712 5709 5706 5702 5698 5695 5691 5687 5684 5680 5677 5673 5670 5667 5663 5660 5657 5654 5651 5649 5647 5645 5644 5643 5643 5643 5643 5644 5645
5727 5725 5722 5720 5717 5714 5712 5709 5706 5703 5700 5697 5693 5690 5686 5682 5679 5675 5672 5668 5665 5662 5659 5655 5652 5649 5646 5643 5641 5639 5637 5636 5635 5634 5633 5633 5633 5634
5716 5714 5712 5710 5707 5705 5702 5699 5696 5694 5691 5688 5685 5681 5677 5674 5670 5667 5663 5660 5657 5654 5650 5647 5644 5641 5638 5635 5633 5631 5628 5627 5625 5624 5623 5623 5623 5623
5706 5704 5702 5700 5698 5695 5693 5690 5687 5685 5682 5679 5676 5672 5669 5665 5662 5658 5655 5651 5648 5645 5642 5639 5636 5632 5629 5626 5624 5621 5619 5617 5616 5614 5612 5611 5611 5610
5696 5694 5692 5690 5688 5686 5684 5681 5679 5676 5673 5670 5667 5664 5660 5657 5653 5650 5646 5643 5639 5636 5633 5630 5626 5623 5620 5617 5614 5611 5609 5606 5604 5602 5600 5599 5598 5597
5686 5684 5683 5681 5679 5677 5675 5672 5670 5667 5664 5661 5658 5655 5652 5648 5644 5641 5637 5634 5630 5627 5623 5620 5616 5613 5609 5606 5603 5599 5596 5594 5591 5589 5587 5585 5584 5583
5676 5675 5673 5672 5670 5668 5666 5663 5661 5658 5656 5653 5650 5646 5643 5639 5635 5632 5628 5624 5621 5617 5613 5609 5606 5602 5598 5594 5591 5587 5584 5580 5577 5575 5572 5571 5569 5568
5667 5666 5664 5663 5661 5659 5657 5655 5652 5650 5647 5644 5641 5637 5634 5630 5626 5622 5618 5614 5610 5606 5602 5598 5594 5590 5585 5581 5577 5573 5570 5566 5563 5560 5557 5555 5553 5552
5658 5657 5656 5654 5652 5650 5648 5646 5644 5641 5638 5635 5632 5628 5624 5620 5617 5613 5608 5604 5599 5595 5590 5586 5581 5577 5572 5567 5563 5559 5555 5552 5548 5545 5542 5539 5538 5536
5649 5648 5647 5645 5644 5642 5640 5638 5635 5632 5629 5626 5623 5619 5615 5611 5607 5602 5598 5593 5588 5583 5578 5573 5568 5563 5558 5553 5549 5545 5541 5537 5533 5529 5526 5523 5521 5520
5641 5640 5638 5637 5635 5633 5631 5629 5626 5624 5620 5617 5613 5609 5605 5601 5596 5592 5587 5582 5576 5571 5566 5560 5555 5549 5544 5538 5534 5530 5525 5521 5518 5514 5510 5507 5505 5504
5632 5631 5630 5628 5627 5625 5622 5620 5617 5614 5611 5607 5603 5599 5595 5591 5586 5581 5575 5570 5564 5558 5553 5547 5541 5535 5530 5524 5519 5514 5510 5506 5502 5499 5495 5492 5490 5488
5624 5623 5621 5620 5618 5616 5613 5611 5608 5605 5601 5597 5593 5589 5585 5580 5575 5570 5564 5558 5552 5546 5540 5534 5528 5522 5516 5510 5504 5499 5495 5491 5488 5484 5481 5478 5475 5473
5616 5614 5613 5611 5609 5607 5604 5601 5598 5595 5591 5587 5583 5579 5574 5569 5564 5558 5553 5547 5540 5534 5528 5521 5515 5509 5503 5497 5491 5485 5481 5476 5472 5469 5466 5463 5460 5458
5607 5605 5604 5602 5600 5597 5595 5592 5588 5585 5581 5577 5573 5568 5563 5558 5553 5547 5541 5535 5529 5522 5516 5509 5503 5496 5490 5484 5478 5472 5467 5463 5459 5455 5451 5448 5445 5443
5598 5596 5595 5593 5591 5588 5585 5582 5579 5575 5571 5567 5562 5557 5552 5547 5542 5536 5530 5523 5517 5510 5504 5497 5491 5484 5477 5471 5465 5460 5454 5450 5445 5442 5438 5435 5432 5430
5589 5587 5585 5583 5581 5578 5575 5572 5569 5565 5561 5556 5552 5547 5542 5536 5531 5525 5518 5512 5505 5499 5492 5486 5479 5473 5467 5460 5454 5448 5443 5438 5433 5430 5426 5423 5420 5417
5579 5578 5576 5574 5571 5568 5565 5562 5558 5554 5550 5546 5541 5536 5531 5525 5519 5513 5507 5501 5494 5487 5481 5474 5468 5462 5456 5450 5443 5436 5431 5426 5422 5418 5415 5412 5409 5406
5569 5568 5566 5563 5561 5558 5555 5551 5548 5544 5540 5535 5530 5525 5520 5514 5508 5502 5496 5489 5483 5476 5470 5463 5457 5451 5445 5439 5433 5426 5420 5416 5412 5408 5404 5402 5399 5396
5559 5557 5555 5553 5550 5547 5544 5541 5537 5533 5528 5524 5519 5514 5508 5503 5497 5491 5485 5478 5472 5466 5459 5452 5446 5440 5434 5428 5423 5416 5410 5405 5402 5398 5395 5392 5389 5387
5549 5547 5545 5542 5539 5536 5533 5529 5526 5522 5517 5513 5508 5502 5497 5491 5485 5479 5473 5467 5461 5455 5449 5442 5436 5430 5424 5419 5413 5407 5401 5396 5392 5388 5385 5382 5380 5378
5538 5536 5534 5531 5528 5525 5522 5518 5514 5510 5506 5501 5496 5491 5485 5480 5474 5468 5462 5456 5450 5444 5438 5432 5426 5420 5414 5409 5404 5398 5393 5388 5383 5379 5375 5372 5371 5369